[[{"header":{"parameterUnit":"m.s-1","parameterCategory":1,"la1":30.2991,"la2":30.254,"lo1":-89.0895,"lo2":-89.0444,"dy":0.0017,"dx":0.0017,"nx":28,"ny":28,"refTime":"2024-05-04T21:00:00:Z","depth":0,"parameterNumber":2,"parameterNumberName":"U-component_of_WINDS"},"data":[0,0,0,0,0,0,0,0,0,0,0,0,0,0,0,0,0,0,0,0,0,0,0,0,0,0,0,0,0,0,0,0,0,0,0,0,0,0,0,0,0,0,0,0,0,0,0,0,0,0,0,0,0,0,0,0,0,0,-3.1268,-3.1268,0,-3.1306,-3.1306,-3.1307,-3.1242,-3.124,-3.1238,-3.1236,-3.1275,-3.1278,-3.1282,0,0,0,0,0,0,0,0,0,0,0,0,0,-3.1141,-3.1144,-3.1268,-3.1268,-3.1269,-3.1306,-3.1306,-3.1307,-3.1243,-3.124,-3.1237,-3.1235,-3.1274,-3.1278,-3.1282,0,0,0,0,0,0,0,0,0,0,0,0,0,-3.1189,-3.1145,-3.1268,-3.1241,-3.1239,-3.1306,-3.1306,-3.1307,-3.1243,-3.124,-3.1236,-3.1233,-3.1273,-3.1278,-3.1282,-3.1377,0,0,-3.1297,-3.1299,0,0,0,0,0,0,0,0,-3.1187,-3.1194,-3.1245,-3.1243,-3.1241,-3.1266,-3.1276,-3.1331,-3.1244,-3.1242,-3.1236,-3.1232,-3.1275,-3.1279,-3.1294,-3.1379,-3.1381,-3.1297,-3.13,-3.1302,-3.1303,0,0,0,0,0,0,0,-3.1184,-3.1192,-3.1283,-3.1245,-3.1243,-3.1228,-3.1231,-3.1286,-3.1276,-3.1242,-3.1237,-3.1242,-3.1273,-3.1289,-3.1294,-3.1381,-3.1297,-3.1301,-3.1304,-3.1306,-3.1547,-3.1551,0,0,0,0,0,0,-3.1183,-3.119,-3.1282,-3.1284,-3.1205,-3.1233,-3.1236,-3.1261,-3.1276,-3.1275,-3.1245,-3.1239,-3.1283,-3.1289,-3.1295,-3.1408,-3.1302,-3.1306,-3.1309,-3.1544,-3.1548,-3.1552,0,0,0,0,0,0,-3.1181,-3.1192,-3.128,-3.1236,-3.1246,-3.1238,-3.1267,-3.1264,-3.1279,-3.1278,-3.1276,-3.1263,-3.1281,-3.1289,-3.1357,-3.1408,-3.1308,-3.1312,-3.154,-3.1545,-3.155,-3.1633,0,0,0,0,0,0,-3.1177,-3.1192,-3.1227,-3.1237,-3.1248,-3.1341,-3.127,-3.1267,-3.1288,-3.128,-3.1295,-3.1294,-3.1279,-3.1351,-3.1362,-3.1413,-3.1316,-3.1535,-3.1542,-3.1548,-3.1626,-3.164,-3.1653,0,0,0,0,0,-3.1173,-3.1249,-3.1229,-3.124,-3.1292,-3.1344,-3.1351,-3.1332,-3.1292,-3.1328,-3.1327,-3.1293,-3.1401,-3.1358,-3.137,-3.1423,-3.1532,-3.154,-3.1548,-3.1619,-3.1638,-3.1653,0,0,0,0,0,0,-3.1244,-3.1249,-3.1228,-3.1308,-3.1327,-3.1333,-3.1378,-3.1351,-3.1381,-3.1373,-3.1348,-3.1352,-3.1426,-3.1432,-3.1384,-3.1516,-3.146,-3.1471,-3.151,-3.1527,-3.1541,-3.1538,-3.132,0,0,0,0,0,-3.127,-3.1311,-3.1313,-3.1384,-3.1395,-3.1385,-3.1407,-3.1391,-3.1408,-3.1416,-3.142,-3.1439,-3.1477,-3.1502,-3.1537,-3.1626,-3.1629,-3.1669,-3.1683,-3.1694,-3.1704,-3.1752,-3.177,-3.1579,-3.1579,-3.1579,0,0,-3.1322,-3.133,-3.1357,-3.1399,-3.1411,-3.1455,-3.1392,-3.144,-3.1473,-3.1423,-3.1488,-3.1492,-3.1512,-3.1592,-3.1627,-3.1598,-3.1758,-3.1705,-3.1714,-3.1717,-3.1763,-3.1781,-3.1797,-3.1584,-3.1583,-3.1583,0,0,-3.1439,-3.1449,-3.151,-3.1524,-3.1543,-3.1536,-3.1551,-3.1563,-3.1563,-3.1628,-3.1592,-3.1631,-3.1697,-3.1713,-3.1729,-3.1855,-3.1826,-3.1868,-3.194,-3.1987,-3.2002,-3.2016,-3.2061,-3.2078,-3.1877,-3.1878,-3.1878,0,-3.1502,-3.1566,-3.1545,-3.1597,-3.1616,-3.1574,-3.1636,-3.165,-3.168,-3.1695,-3.1663,-3.1746,-3.1756,-3.1839,-3.187,-3.1885,-3.1901,-3.1865,-3.2002,-3.2015,-3.2027,-3.207,-3.2087,-3.1882,-3.1882,-3.1881,-3.1881,0,-3.1642,-3.1688,-3.1735,-3.1765,-3.179,-3.1847,-3.1835,-3.1863,-3.1846,-3.1843,-3.191,-3.1921,-3.1958,-3.1977,-3.196,-3.2059,-3.204,-3.2006,-3.1948,-3.2051,-3.2091,-3.2107,-3.189,-3.1888,-3.1886,-3.1885,0,0,-3.1804,-3.1823,-3.1841,-3.1854,-3.1873,-3.1908,-3.1964,-3.2,-3.2025,-3.2048,-3.2094,-3.2152,-3.2121,-3.214,-3.2124,-3.2166,-3.2266,-3.2126,-3.2127,-3.2152,-3.2377,-3.2402,-3.2422,-3.2247,-3.225,-3.2253,-3.2375,0,-3.1921,-3.2016,-3.2,-3.2092,-3.2135,-3.2096,-3.2144,-3.2162,-3.2161,-3.2198,-3.2197,-3.2239,-3.2193,-3.2205,-3.2245,-3.2246,-3.2311,-3.2237,-3.2291,-3.2293,-3.2286,-3.2443,-3.247,-3.2584,-3.239,-3.2393,-3.2395,0,-3.207,-3.2099,-3.2196,-3.221,-3.2227,-3.227,-3.2303,-3.2338,-3.2358,-3.2355,-3.2377,-3.2354,-3.2411,-3.2353,-3.2431,-3.2381,-3.2402,-3.2406,-3.241,-3.2414,-3.235,-3.2451,-3.262,-3.2638,-3.2419,-3.2417,-3.2416,0,-3.2179,-3.2242,-3.2308,-3.2321,-3.2339,-3.2371,-3.2379,-3.2396,-3.2419,-3.2448,-3.2463,-3.2499,-3.2518,-3.2546,-3.2534,-3.2493,-3.2615,-3.2556,-3.2614,-3.2615,-3.2641,-3.2639,-3.2816,-3.2655,-3.2655,-3.2655,-3.2654,0,-3.2311,-3.2372,-3.2357,-3.2398,-3.2466,-3.2447,-3.2515,-3.2519,-3.2534,-3.2576,-3.2545,-3.2585,-3.2567,-3.2606,-3.2597,-3.2663,-3.2672,-3.2672,-3.2668,-3.2674,-3.2674,-3.2687,-3.2679,-3.2659,-3.2658,-3.2657,-3.2656,0,-3.2443,-3.2436,-3.2506,-3.2517,-3.2522,-3.2571,-3.2581,-3.262,-3.2618,-3.2671,-3.2682,-3.2679,-3.2724,-3.2715,-3.2764,-3.2758,-3.2841,-3.2828,-3.2834,-3.2831,-3.289,-3.2885,-3.3081,-3.3107,-3.293,-3.2931,-3.2933,0,-3.2528,-3.2574,-3.2591,-3.2616,-3.2628,-3.267,-3.2693,-3.2677,-3.2704,-3.2731,-3.2767,-3.2808,-3.2841,-3.2914,-3.2916,-3.2954,-3.2942,-3.3008,-3.2947,-3.2952,-3.2943,-3.294,-3.2945,-3.302,-3.3022,-3.3024,-3.3025,0,-3.2679,-3.2673,-3.2709,-3.2744,-3.2774,-3.28,-3.2824,-3.2847,-3.2833,-3.2865,-3.291,-3.2935,-3.2986,-3.3028,-3.3063,-3.3073,-3.3048,-3.3045,-3.306,-3.3066,-3.3068,-3.3068,-3.2867,-3.304,-3.3038,-3.3037,-3.3036,-3.3036,-3.279,-3.283,-3.2848,-3.2889,-3.2905,-3.2929,-3.2966,-3.2969,-3.3006,-3.3046,-3.3035,-3.3086,-3.3107,-3.3152,-3.3166,-3.3207,-3.3182,-3.3204,-3.321,-3.3216,-3.3223,-3.3062,-3.3213,-3.3213,-3.3212,-3.3212,-3.3211,0,-3.2939,-3.295,-3.2988,-3.3022,-3.3055,-3.3029,-3.3054,-3.3083,-3.3129,-3.315,-3.3183,-3.3236,-3.3277,-3.3284,-3.3323,-3.3355,-3.3344,-3.3366,-3.3363,-3.3366,-3.3242,-3.3225,-3.3374,-3.3374,-3.3374,-3.3374,-3.3373,-3.3373,-3.3021,-3.3087,-3.3084,-3.3158,-3.3168,-3.3219,-3.3236,-3.3258,-3.3274,-3.3335,-3.3369,-3.3373,-3.3388,-3.3429,-3.3466,-3.3467,-3.3483,-3.3509,-3.3506,-3.339,-3.3374,-3.3359,-3.3342,-3.3513,-3.3513,-3.3626,-3.3627,-3.3627]},{"header":{"parameterUnit":"m.s-1","parameterCategory":1,"la1":30.2991,"la2":30.254,"lo1":-89.0895,"lo2":-89.0444,"dy":0.0017,"dx":0.0017,"nx":28,"ny":28,"refTime":"2024-05-04T21:00:00:Z","depth":0,"parameterNumber":3,"parameterNumberName":"V-component_of_WINDS"},"data":[0,0,0,0,0,0,0,0,0,0,0,0,0,0,0,0,0,0,0,0,0,0,0,0,0,0,0,0,0,0,0,0,0,0,0,0,0,0,0,0,0,0,0,0,0,0,0,0,0,0,0,0,0,0,0,0,0,0,1.0031,1.0032,0,1.0104,1.0105,1.0106,1.0122,1.0121,1.0121,1.012,1.0193,1.0196,1.0198,0,0,0,0,0,0,0,0,0,0,0,0,0,0.9905,0.9907,1.0031,1.0032,1.0033,1.0104,1.0105,1.0106,1.0122,1.0121,1.012,1.012,1.0193,1.0195,1.0198,0,0,0,0,0,0,0,0,0,0,0,0,0,0.9967,0.9908,1.0031,1.0049,1.0052,1.0104,1.0105,1.0106,1.0122,1.0121,1.012,1.012,1.0192,1.0195,1.0199,1.0237,0,0,1.021,1.0212,0,0,0,0,0,0,0,0,0.9963,0.9971,1.0045,1.0048,1.0051,1.0103,1.0087,1.015,1.0122,1.0095,1.012,1.0119,1.0164,1.017,1.0185,1.024,1.0244,1.021,1.0212,1.0214,1.0215,0,0,0,0,0,0,0,0.9959,0.9968,1.006,1.0047,1.005,1.0054,1.0062,1.0099,1.0133,1.0097,1.0099,1.0107,1.0165,1.0181,1.0187,1.0245,1.021,1.0213,1.0216,1.0217,1.0337,1.0338,0,0,0,0,0,0,0.9951,0.9965,1.0057,1.0062,1.0004,1.0057,1.0066,1.0087,1.0133,1.0139,1.0108,1.0108,1.0176,1.0183,1.019,1.0239,1.0214,1.0217,1.022,1.0336,1.0337,1.0338,0,0,0,0,0,0,0.9949,0.996,1.0054,1.0014,1.0026,1.006,1.0083,1.0089,1.0105,1.014,1.0146,1.0118,1.0175,1.0184,1.0226,1.0241,1.0219,1.0222,1.0335,1.0337,1.0338,1.0337,0,0,0,0,0,0,0.9945,0.9958,0.9973,1.0014,1.0028,1.0089,1.0084,1.0091,1.0112,1.0112,1.0152,1.0158,1.0175,1.022,1.0229,1.0246,1.0225,1.0334,1.0336,1.0337,1.0335,1.0338,1.034,0,0,0,0,0,0.994,0.9969,0.9974,0.9985,1.0047,1.009,1.0098,1.0118,1.0113,1.0128,1.0151,1.0157,1.0238,1.0224,1.0235,1.0253,1.0333,1.0335,1.0337,1.0334,1.0337,1.034,0,0,0,0,0,0,0.9929,0.9975,0.9981,1.0023,1.0053,1.0093,1.0113,1.0121,1.0152,1.0151,1.0174,1.0183,1.0223,1.0242,1.0226,1.0293,1.0285,1.029,1.0279,1.0283,1.0285,1.028,1.0228,0,0,0,0,0,0.9931,0.9962,1.0001,1.0035,1.0049,1.0079,1.0098,1.0111,1.0142,1.0155,1.018,1.021,1.0243,1.0264,1.0295,1.0338,1.0348,1.0356,1.0358,1.036,1.0364,1.0389,1.0394,1.0346,1.0346,1.0346,0,0,0.9936,0.9965,0.9983,1.0033,1.0058,1.009,1.0089,1.0122,1.0146,1.0159,1.0201,1.0221,1.0255,1.0298,1.0318,1.0315,1.0379,1.0363,1.0364,1.0367,1.0392,1.0396,1.04,1.0347,1.0347,1.0347,0,0,0.9962,0.9987,1.0019,1.0044,1.0081,1.0101,1.0108,1.0148,1.0162,1.0204,1.0215,1.0244,1.0299,1.0324,1.0344,1.0381,1.0388,1.0391,1.0403,1.0428,1.0431,1.0435,1.045,1.0454,1.0394,1.0394,1.0394,0,0.9964,1.0013,1.0034,1.0068,1.009,1.0104,1.0137,1.016,1.0206,1.0221,1.0217,1.0288,1.0312,1.0362,1.0371,1.0386,1.0396,1.0386,1.0429,1.0433,1.0436,1.0451,1.0456,1.0395,1.0394,1.0394,1.0394,0,1.0014,1.0047,1.0069,1.0114,1.0138,1.0171,1.0198,1.022,1.0231,1.0251,1.0294,1.0324,1.0363,1.0376,1.0386,1.0427,1.0425,1.0425,1.0417,1.0441,1.0455,1.046,1.0395,1.0395,1.0395,1.0395,0,0,1.0033,1.0091,1.0099,1.012,1.0163,1.019,1.0224,1.0263,1.0282,1.0313,1.0343,1.039,1.0391,1.0414,1.0427,1.0449,1.0479,1.0447,1.0448,1.0453,1.0527,1.0528,1.0533,1.0483,1.0484,1.0485,1.0525,0,1.0066,1.0128,1.0149,1.02,1.0232,1.0247,1.0277,1.0307,1.0327,1.0357,1.0379,1.0413,1.0411,1.0425,1.0447,1.047,1.0494,1.0468,1.0512,1.0513,1.0503,1.054,1.0541,1.0576,1.053,1.0531,1.0532,0,1.0111,1.0145,1.0199,1.024,1.0255,1.0281,1.032,1.0348,1.0383,1.0396,1.0422,1.0435,1.0471,1.0461,1.0513,1.0495,1.0514,1.0528,1.053,1.0536,1.0524,1.0548,1.0588,1.0594,1.054,1.0539,1.0539,0,1.0122,1.018,1.0221,1.0239,1.0287,1.0306,1.0327,1.036,1.0383,1.0416,1.0432,1.0468,1.0489,1.0517,1.0539,1.053,1.0589,1.0581,1.0602,1.0601,1.0614,1.0613,1.0659,1.0625,1.0624,1.0624,1.0624,0,1.0156,1.0189,1.0227,1.0252,1.029,1.0315,1.0352,1.0373,1.0404,1.0434,1.0448,1.0476,1.0504,1.0535,1.0553,1.0593,1.0602,1.0614,1.0618,1.0613,1.0612,1.0627,1.0625,1.0626,1.0626,1.0625,1.0625,0,1.0174,1.0201,1.0247,1.0289,1.0301,1.0327,1.0364,1.0389,1.041,1.0448,1.0458,1.0491,1.0529,1.0554,1.0602,1.0614,1.0659,1.0662,1.0648,1.065,1.067,1.0668,1.0727,1.0737,1.0695,1.0696,1.0696,0,1.0195,1.0221,1.0267,1.0289,1.031,1.0344,1.0368,1.0393,1.0417,1.0459,1.048,1.0519,1.0552,1.0612,1.064,1.0677,1.0682,1.0701,1.0688,1.0683,1.0684,1.0683,1.0686,1.0703,1.0703,1.0703,1.0704,0,1.0229,1.0241,1.0275,1.0314,1.0342,1.0374,1.0406,1.0422,1.0453,1.048,1.0519,1.0545,1.0595,1.0634,1.0674,1.0696,1.0705,1.0708,1.0715,1.071,1.0701,1.0708,1.0654,1.0706,1.0706,1.0706,1.0706,1.0705,1.025,1.0274,1.0311,1.0349,1.0376,1.0406,1.0432,1.0457,1.0491,1.0535,1.0547,1.0589,1.0624,1.0679,1.0702,1.0735,1.0733,1.0742,1.0745,1.0747,1.0748,1.0695,1.0742,1.0742,1.0742,1.0742,1.0742,0,1.0286,1.0311,1.0345,1.039,1.042,1.0427,1.0463,1.0487,1.0524,1.0557,1.0589,1.0636,1.0674,1.0706,1.0745,1.0766,1.0771,1.0776,1.0775,1.078,1.0747,1.0738,1.0771,1.0771,1.0771,1.0771,1.0771,1.0771,1.0308,1.0351,1.0368,1.0424,1.0449,1.0491,1.0511,1.0539,1.0565,1.0617,1.0649,1.067,1.0702,1.0745,1.0781,1.0789,1.0803,1.0807,1.0816,1.0785,1.0782,1.0779,1.077,1.081,1.081,1.0847,1.0847,1.0847]}]]